Time,TemperatureF,DewpointF,PressureIn,WindDirection,WindDirectionDegrees,WindSpeedMPH,WindSpeedGustMPH,Humidity,HourlyPrecipIn,Conditions,Clouds,dailyrainin,SolarRadiationWatts/m^2,SoftwareType,DateUTC
2013-04-01 00:03:00,55.0,53.0,-100.00,West,260,4.0,5.0,94,0.01,,,0.83,0.000000,,2013-04-01 04:03:00,
2013-04-01 00:33:00,55.0,53.0,-100.00,West,268,3.0,5.0,94,0.00,,,0.73,0.000000,,2013-04-01 04:33:00,
2013-04-01 00:44:00,55.0,53.0,-100.00,West,268,3.0,5.0,94,0.00,,,0.73,0.000000,,2013-04-01 04:44:00,
2013-04-01 00:53:00,55.0,53.0,-100.00,West,268,3.0,5.0,94,0.00,,,0.73,0.000000,,2013-04-01 04:53:00,
2013-04-01 01:03:00,55.0,53.0,-100.00,West,268,3.0,5.0,94,0.00,,,0.73,0.000000,,2013-04-01 05:03:00,
2013-04-01 01:33:00,55.0,54.0,-100.00,West,269,3.0,5.0,95,0.01,,,0.64,0.000000,,2013-04-01 05:33:00,
2013-04-01 01:43:00,55.0,54.0,-100.00,West,269,3.0,5.0,95,0.01,,,0.64,0.000000,,2013-04-01 05:43:00,
2013-04-01 01:53:00,55.0,54.0,-100.00,West,269,3.0,5.0,95,0.01,,,0.64,0.000000,,2013-04-01 05:53:00,
2013-04-01 02:02:00,55.0,54.0,-100.00,West,269,3.0,5.0,95,0.01,,,0.64,0.000000,,2013-04-01 06:02:00,
2013-04-01 02:34:00,54.0,52.0,-100.00,West,269,3.0,5.0,93,0.00,,,0.54,0.000000,,2013-04-01 06:34:00,
2013-04-01 02:43:00,54.0,52.0,-100.00,West,269,3.0,5.0,93,0.00,,,0.54,0.000000,,2013-04-01 06:43:00,
2013-04-01 02:53:00,54.0,52.0,-100.00,West,269,3.0,5.0,93,0.00,,,0.54,0.000000,,2013-04-01 06:53:00,
2013-04-01 03:03:00,54.0,52.0,-100.00,West,269,3.0,5.0,93,0.00,,,0.54,0.000000,,2013-04-01 07:03:00,
2013-04-01 03:32:00,55.0,53.0,-100.00,WNW,300,4.0,5.0,93,0.00,,,-99.99,0.000000,,2013-04-01 07:32:00,
2013-04-01 03:43:00,55.0,53.0,-100.00,WNW,300,4.0,5.0,93,0.00,,,-99.99,0.000000,,2013-04-01 07:43:00,
2013-04-01 03:53:00,55.0,53.0,-100.00,WNW,300,4.0,5.0,93,0.00,,,-99.99,0.000000,,2013-04-01 07:53:00,
2013-04-01 04:03:00,55.0,53.0,-100.00,WNW,300,4.0,5.0,93,0.00,,,-99.99,0.000000,,2013-04-01 08:03:00,
2013-04-01 04:32:00,54.0,52.0,-100.00,NW,323,3.0,5.0,92,0.00,,,0.27,0.000000,,2013-04-01 08:32:00,
2013-04-01 04:43:00,54.0,52.0,-100.00,NW,323,3.0,5.0,92,0.00,,,0.27,0.000000,,2013-04-01 08:43:00,
2013-04-01 04:53:00,54.0,52.0,-100.00,NW,323,3.0,5.0,92,0.00,,,0.27,0.000000,,2013-04-01 08:53:00,
2013-04-01 05:02:00,54.0,52.0,-100.00,NW,323,3.0,5.0,92,0.00,,,0.27,0.000000,,2013-04-01 09:02:00,
2013-04-01 05:33:00,54.0,49.0,-100.00,NW,321,5.0,6.0,84,0.00,,,0.09,0.000000,,2013-04-01 09:33:00,
2013-04-01 05:43:00,54.0,49.0,-100.00,NW,321,5.0,6.0,84,0.00,,,0.09,0.000000,,2013-04-01 09:43:00,
2013-04-01 05:54:00,54.0,49.0,-100.00,NW,321,5.0,6.0,84,0.00,,,0.09,0.000000,,2013-04-01 09:54:00,
2013-04-01 06:03:00,54.0,49.0,-100.00,NW,321,5.0,6.0,84,0.00,,,0.09,0.000000,,2013-04-01 10:03:00,
2013-04-01 06:34:00,51.0,47.0,-100.00,NW,313,6.0,7.0,87,0.00,,,0.08,0.000000,,2013-04-01 10:34:00,
2013-04-01 06:43:00,51.0,47.0,-100.00,NW,313,6.0,7.0,87,0.00,,,0.08,0.000000,,2013-04-01 10:43:00,
2013-04-01 06:53:00,51.0,47.0,-100.00,NW,313,6.0,7.0,87,0.00,,,0.08,0.000000,,2013-04-01 10:53:00,
2013-04-01 07:03:00,51.0,47.0,-100.00,NW,313,6.0,7.0,87,0.00,,,0.08,0.000000,,2013-04-01 11:03:00,
2013-04-01 07:33:00,51.0,47.0,-100.00,NW,319,5.0,8.0,86,0.00,,,0.08,0.000000,,2013-04-01 11:33:00,
2013-04-01 07:43:00,51.0,47.0,-100.00,NW,319,5.0,8.0,86,0.00,,,0.08,0.000000,,2013-04-01 11:43:00,
2013-04-01 07:53:00,51.0,47.0,-100.00,NW,319,5.0,8.0,86,0.00,,,0.08,0.000000,,2013-04-01 11:53:00,
2013-04-01 08:03:00,51.0,47.0,-100.00,NW,319,5.0,8.0,86,0.00,,,0.08,0.000000,,2013-04-01 12:03:00,
2013-04-01 08:32:00,51.0,45.0,-100.00,NW,324,6.0,9.0,79,0.00,,,-99.99,18.000000,,2013-04-01 12:32:00,
2013-04-01 08:43:00,51.0,45.0,-100.00,NW,324,6.0,9.0,79,0.00,,,-99.99,18.000000,,2013-04-01 12:43:00,
2013-04-01 08:53:00,51.0,45.0,-100.00,NW,324,6.0,9.0,79,0.00,,,-99.99,18.000000,,2013-04-01 12:53:00,
2013-04-01 09:03:00,51.0,45.0,-100.00,NW,324,6.0,9.0,79,0.00,,,-99.99,18.000000,,2013-04-01 13:03:00,
2013-04-01 09:33:00,54.0,46.0,-100.00,NW,318,5.0,8.0,73,0.00,,,-99.99,234.000000,,2013-04-01 13:33:00,
2013-04-01 09:43:00,54.0,46.0,-100.00,NW,318,5.0,8.0,73,0.00,,,-99.99,234.000000,,2013-04-01 13:43:00,
2013-04-01 09:53:00,54.0,46.0,-100.00,NW,318,5.0,8.0,73,0.00,,,-99.99,234.000000,,2013-04-01 13:53:00,
2013-04-01 10:04:00,54.0,46.0,-100.00,NW,318,5.0,8.0,73,0.00,,,-99.99,234.000000,,2013-04-01 14:04:00,
2013-04-01 10:33:00,61.0,45.0,-100.00,NW,314,4.0,8.0,55,0.00,,,-99.99,491.000000,,2013-04-01 14:33:00,
2013-04-01 10:43:00,61.0,45.0,-100.00,NW,314,4.0,8.0,55,0.00,,,-99.99,491.000000,,2013-04-01 14:43:00,
2013-04-01 10:53:00,61.0,45.0,-100.00,NW,314,4.0,8.0,55,0.00,,,-99.99,491.000000,,2013-04-01 14:53:00,
2013-04-01 11:03:00,61.0,45.0,-100.00,NW,314,4.0,8.0,55,0.00,,,-99.99,491.000000,,2013-04-01 15:03:00,
2013-04-01 11:34:00,64.0,34.0,-100.00,NNW,333,3.0,9.0,33,0.00,,,-99.99,719.000000,,2013-04-01 15:34:00,
2013-04-01 11:44:00,64.0,34.0,-100.00,NNW,333,3.0,9.0,33,0.00,,,-99.99,719.000000,,2013-04-01 15:44:00,
2013-04-01 11:54:00,64.0,34.0,-100.00,NNW,333,3.0,9.0,33,0.00,,,-99.99,719.000000,,2013-04-01 15:54:00,
2013-04-01 12:03:00,64.0,34.0,-100.00,NNW,333,3.0,9.0,33,0.00,,,-99.99,719.000000,,2013-04-01 16:03:00,
2013-04-01 13:32:00,69.0,35.0,-100.00,WNW,297,5.0,13.0,29,-99.99,,,0.08,1004.000000,,2013-04-01 17:32:00,
2013-04-01 13:42:00,69.0,35.0,-100.00,WNW,297,5.0,13.0,29,-99.99,,,0.08,1004.000000,,2013-04-01 17:42:00,
2013-04-01 13:53:00,69.0,35.0,-100.00,WNW,297,5.0,13.0,29,-99.99,,,0.08,1004.000000,,2013-04-01 17:53:00,
2013-04-01 14:03:00,69.0,35.0,-100.00,WNW,297,5.0,13.0,29,-99.99,,,0.08,1004.000000,,2013-04-01 18:03:00,
2013-04-01 14:33:00,71.0,35.0,-100.00,NW,322,4.0,10.0,27,0.00,,,0.08,1050.000000,,2013-04-01 18:33:00,
2013-04-01 14:43:00,71.0,35.0,-100.00,NW,322,4.0,10.0,27,0.00,,,0.08,1050.000000,,2013-04-01 18:43:00,
2013-04-01 14:53:00,71.0,35.0,-100.00,NW,322,4.0,10.0,27,0.00,,,0.08,1050.000000,,2013-04-01 18:53:00,
2013-04-01 15:04:00,71.0,35.0,-100.00,NW,322,4.0,10.0,27,0.00,,,0.08,1050.000000,,2013-04-01 19:04:00,
2013-04-01 15:33:00,67.0,35.0,-100.00,WSW,253,4.0,10.0,31,0.00,,,0.08,536.000000,,2013-04-01 19:33:00,
2013-04-01 15:43:00,67.0,35.0,-100.00,WSW,253,4.0,10.0,31,0.00,,,0.08,536.000000,,2013-04-01 19:43:00,
2013-04-01 15:53:00,67.0,35.0,-100.00,WSW,253,4.0,10.0,31,0.00,,,0.08,536.000000,,2013-04-01 19:53:00,
2013-04-01 16:02:00,67.0,35.0,-100.00,WSW,253,4.0,10.0,31,0.00,,,0.08,536.000000,,2013-04-01 20:02:00,
2013-04-01 16:33:00,65.0,35.0,-100.00,NNW,332,4.0,10.0,33,0.00,,,0.04,420.000000,,2013-04-01 20:33:00,
2013-04-01 16:43:00,65.0,35.0,-100.00,NNW,332,4.0,10.0,33,0.00,,,0.04,420.000000,,2013-04-01 20:43:00,
2013-04-01 16:52:00,65.0,35.0,-100.00,NNW,332,4.0,10.0,33,0.00,,,0.04,420.000000,,2013-04-01 20:52:00,
2013-04-01 17:03:00,65.0,35.0,-100.00,NNW,332,4.0,10.0,33,0.00,,,0.04,420.000000,,2013-04-01 21:03:00,
2013-04-01 17:33:00,69.0,39.0,-100.00,NW,304,5.0,13.0,33,0.00,,,0.02,462.000000,,2013-04-01 21:33:00,
2013-04-01 17:44:00,69.0,39.0,-100.00,NW,304,5.0,13.0,33,0.00,,,0.02,462.000000,,2013-04-01 21:44:00,
2013-04-01 17:53:00,69.0,39.0,-100.00,NW,304,5.0,13.0,33,0.00,,,0.02,462.000000,,2013-04-01 21:53:00,
2013-04-01 18:03:00,69.0,39.0,-100.00,NW,304,5.0,13.0,33,0.00,,,0.02,462.000000,,2013-04-01 22:03:00,
2013-04-01 18:33:00,64.0,34.0,-100.00,West,270,6.0,12.0,33,0.00,,,0.02,436.000000,,2013-04-01 22:33:00,
2013-04-01 18:43:00,64.0,34.0,-100.00,West,270,6.0,12.0,33,0.00,,,0.02,436.000000,,2013-04-01 22:43:00,
2013-04-01 18:52:00,64.0,34.0,-100.00,West,270,6.0,12.0,33,0.00,,,0.02,436.000000,,2013-04-01 22:52:00,
2013-04-01 19:02:00,64.0,34.0,-100.00,West,270,6.0,12.0,33,0.00,,,0.02,436.000000,,2013-04-01 23:02:00,
2013-04-01 19:32:00,62.0,35.0,-100.00,West,261,4.0,14.0,37,0.00,,,0.02,108.000000,,2013-04-01 23:32:00,
2013-04-01 19:43:00,62.0,35.0,-100.00,West,261,4.0,14.0,37,0.00,,,0.02,108.000000,,2013-04-01 23:43:00,
2013-04-01 19:53:00,62.0,35.0,-100.00,West,261,4.0,14.0,37,0.00,,,0.02,108.000000,,2013-04-01 23:53:00,
2013-04-01 20:03:00,62.0,35.0,-100.00,West,261,4.0,14.0,37,0.00,,,0.02,108.000000,,2013-04-02 00:03:00,
2013-04-01 20:33:00,59.0,35.0,-100.00,West,272,5.0,10.0,40,0.00,,,0.02,16.000000,,2013-04-02 00:33:00,
2013-04-01 20:43:00,59.0,35.0,-100.00,West,272,5.0,10.0,40,0.00,,,0.02,16.000000,,2013-04-02 00:43:00,
2013-04-01 20:53:00,59.0,35.0,-100.00,West,272,5.0,10.0,40,0.00,,,0.02,16.000000,,2013-04-02 00:53:00,
2013-04-01 21:03:00,59.0,35.0,-100.00,West,272,5.0,10.0,40,0.00,,,0.02,16.000000,,2013-04-02 01:03:00,
2013-04-01 21:32:00,57.0,31.0,-100.00,West,276,4.0,9.0,37,0.00,,,0.02,0.000000,,2013-04-02 01:32:00,
2013-04-01 21:43:00,57.0,31.0,-100.00,West,276,4.0,9.0,37,0.00,,,0.02,0.000000,,2013-04-02 01:43:00,
2013-04-01 21:53:00,57.0,31.0,-100.00,West,276,4.0,9.0,37,0.00,,,0.02,0.000000,,2013-04-02 01:53:00,
2013-04-01 22:03:00,57.0,31.0,-100.00,West,276,4.0,9.0,37,0.00,,,0.02,0.000000,,2013-04-02 02:03:00,
2013-04-01 22:33:00,54.0,31.0,-100.00,West,268,1.0,7.0,41,0.00,,,0.02,0.000000,,2013-04-02 02:33:00,
2013-04-01 22:43:00,54.0,31.0,-100.00,West,268,1.0,7.0,41,0.00,,,0.02,0.000000,,2013-04-02 02:43:00,
2013-04-01 22:53:00,54.0,31.0,-100.00,West,268,1.0,7.0,41,0.00,,,0.02,0.000000,,2013-04-02 02:53:00,
2013-04-01 23:02:00,54.0,31.0,-100.00,West,268,1.0,7.0,41,0.00,,,0.02,0.000000,,2013-04-02 03:02:00,
2013-04-01 23:33:00,52.0,31.0,-100.00,West,281,2.0,7.0,45,0.00,,,0.01,0.000000,,2013-04-02 03:33:00,
2013-04-01 23:43:00,52.0,31.0,-100.00,West,281,2.0,7.0,45,0.00,,,0.01,0.000000,,2013-04-02 03:43:00,
2013-04-01 23:53:00,52.0,31.0,-100.00,West,281,2.0,7.0,45,0.00,,,0.01,0.000000,,2013-04-02 03:53:00,